Terminal Aerodrome Forecast
Issued by NWS

Home | Current Version | Previous Version | Text Only | Print | Product List | Glossary On
Versions: 1 2 3 4 5 6 7 8 9 10 11 12 13 14 15 16 17 18 19
000
FTUS43 KIND 210800 AAA
TAFLAF
TAF AMD
KLAF 210802Z 2108/2206 23010KT P6SM SKC
     FM211100 24012G18KT P6SM SKC
     FM211500 25020G32KT P6SM SCT100
     FM211800 26023G39KT P6SM SCT100
     FM212200 26020G34KT P6SM SCT050 OVC100
     FM220000 26012G18KT P6SM OVC050
      AMD LTD TO CLD VIS AND WIND TIL 211300=

USA.gov is the U.S. government's official web portal to all federal, state and local government web resources and services.